Regional Weather Roundup
Issued by NWS Charleston, SC

Current Version | Previous Version | Graphics & Text | Print | Product List | Glossary On
Versions: 1 2 3 4 5 6 7 8 9 10 11 12 13 14 15 16 17 18 19 20 21 22 23 24 25 26 27 28 29 30 31 32 33 34 35 36 37 38 39 40 41 42 43 44 45 46 47 48 49 50
000
ASUS42 KCHS 191411
RWRCHS

REGIONAL WEATHER ROUNDUP
NATIONAL WEATHER SERVICE CHARLESTON SC
1000 AM EDT SUN APR 19 2015

NOTE: "FAIR" INDICATES FEW OR NO CLOUDS BELOW 12,000 FEET WITH NO
SIGNIFICANT WEATHER AND/OR OBSTRUCTIONS TO VISIBILITY.

NOT ALL STATIONS ARE QUALITY CONTROLLED BY THE NATIONAL
WEATHER SERVICE. USE DATA WITH CAUTION...ESPECIALLY
DEWPOINT OBSERVATIONS.

SCZ027-030-031-034>040-042>050-191500-
...SOUTHEAST SOUTH CAROLINA...

CITY           SKY/WX    TMP DP  RH WIND       PRES   REMARKS
N CHARLESTON   CLOUDY    70  67  90 SE6       29.95S
WATERFRONT PRK   N/A     70 N/A N/A E9          N/A
MOUNT PLEASANT PTSUNNY   72  70  94 E3        29.95F
PINOPOLIS      NOT AVBL
MONCKS CORNER  CLOUDY    70  66  88 SE3       29.95S
SUMMERVILLE    CLOUDY    68  68 100 CALM      29.96F
BEAUFORT MCAS    N/A    N/A N/A N/A MISG      29.91F
BEAUFORT ARPT  LGT RAIN  70  70 100 CALM      29.91F
HILTON HEAD IS LGT RAIN  72  72 100 CALM      29.93F
WALTERBORO     CLOUDY    68  68 100 E6        29.94F FOG
ALLENDALE      CLOUDY    72  70  94 SE7       29.89F FOG

...SOUTHERN MIDLANDS AND PEE DEE...

CITY           SKY/WX    TMP DP  RH WIND       PRES   REMARKS
GEORGETOWN     NOT AVBL
KINGSTREE      NOT AVBL
ORANGEBURG     LGT RAIN  68  66  93 SE6       29.93F
BARNWELL       CLOUDY    70  70 100 SE8       29.90F
AIKEN          CLOUDY    52  52 100 E7        29.93F
MANNING        LGT RAIN  66  59  77 CALM      29.95S
COLUMBIA       LGT RAIN  68  65  90 E8        29.91F FOG
SUMTER         LGT RAIN  66  66 100 SE9       29.92F FOG
FLORENCE       CLOUDY    69  65  86 SE8       29.96S
MYRTLE BEACH   PTSUNNY   72  64  78 E12       29.99S
N MYRTLE BEACH CLOUDY    70  65  84 E9        29.97S

$$

GAZ063-065-086>088-099>101-113>116-118-119-134>141-150-191500-
...SOUTHEAST GEORGIA...

CITY           SKY/WX    TMP DP  RH WIND       PRES   REMARKS
SAVANNAH ARPT  CLOUDY    73  70  88 SE8       29.88F FOG
HUNTER AAF     CLOUDY    72  72 100 E7        29.87F
FORT STEWART   PTSUNNY   73  72  94 E9        29.84F
STATESBORO       N/A     70  70 100 SE3       29.87F
SYLVANIA       CLOUDY    70  70 100 SE5       29.88F
CLAXTON        PTSUNNY   70  70 100 E5        29.85F

...CSRA...CENTRAL AND FAR SOUTHEAST GEORGIA...

CITY           SKY/WX    TMP DP  RH WIND       PRES   REMARKS
THOMSON        CLOUDY    71  71 100 CALM      29.91F
AUGUSTA-BUSH   CLOUDY    69  68  96 SE6       29.87F FOG
AUGUSTA-DANIEL LGT RAIN  69  67  93 E8        29.88F FOG
SWAINSBORO     NOT AVBL
VIDALIA        CLOUDY    72  72 100 S5        29.86R
EASTMAN        CLOUDY    75  75 100 SE8       29.88S
HAZLEHURST     FAIR      75  72  88 SE7       29.84F
ALMA           MOSUNNY   75  69  81 SE7       29.85F
WAYCROSS       CLOUDY    77  75  94 S8        29.85
JESUP          PTSUNNY   77  73  88 SE5       29.87S
BAXLEY         FAIR      77  70  78 SE7       29.85S
BRUNSWICK      CLOUDY    73  70  88 SE7       29.88S
SAINT SIMONS   CLOUDY    73  71  93 SE9       29.87F

$$

SCZ027-028-034-036>038-045-046-048>050-GAZ119-141-191500-
...LAKE AND SUPPLEMENTAL COASTAL OBSERVATIONS...

STATION/POSITION TIME  TEMP    WIND        PRES    WAVE   SWELL
                       AIR SEA DIR/SP/G            HT/PER HT/PER/DIR
                 (UTC) (F)     (DEG/KT/KT) (MB)    (FT/S) (FT/S/D)
UPR LAKE MARION  NOT AVBL
WINYAH BAY       NOT AVBL
LAKE MURRAY      1300   67     130/  4/ 10 1012.5F
ACE BASIN NERRS  NOT AVBL
FORT PULASKI     1312   70 71  120/  4/  5 1013.9F
SAPELO ISLAND    1300   72      90/  5     1013.0

$$

ANZ835-935-AMZ111-154-330-350-352-354-370-450-454-472-191500-
...C-MAN AND BUOY OBSERVATIONS...

STATION/POSITION TIME  TEMP    WIND        PRES    WAVE   SWELL
                       AIR SEA DIR/SP/G            HT/PER HT/PER/DIR
                 (UTC) (F)     (DEG/KT/KT) (MB)    (FT/S) (FT/S/D)
BUOY 41004       1350   74 75   90/ 12/ 14 1013.4F   3/ 8   3/ 8
BUOY 41008       1350   69 69  100/  6/  8 1012.5F   2/ 9   2/100/ 9
FOLLY BEACH CMAN 1300   68      70/  6/  7 1014.3F
CAPERS NEARSHORE NOT AVBL
FRIPP NEARSHORE  1300   69     190/  4/  6 1013.8F


STATION/POSITION TIME  TEMP    WIND        PRES    WAVE   SWELL
                       AIR SEA DIR/SP/G            HT/PER HT/PER/DIR
                 (UTC) (F)     (DEG/KT/KT) (MB)    (FT/S) (FT/S/D)
5E ST. MARYS GA  1321      71                N/A     2/ 8   2/ 90/12
FRYING PAN BUOY  1350   74 73  120/ 12/ 14 1015.6R   3/ 8   3/100/ 8
BUOY 41025       1350   73 76   80/ 14/ 16 1016.8S   4/13   3/ 80/13
CAPE LOOKOUT NC  1300   68      60/  5/  6 1016.0F
BUOY 41002       1350   72 75  110/  8/ 10 1016.3R   5/13   5/ 60/13
BUOY 41010       1320   78 78  140/  4/  4 1015.4F
ST AUGUSTINE FL  1400   74 68  180/  8/  9 1013.3R


$$



USA.gov is the U.S. government's official web portal to all federal, state and local government web resources and services.